Leeds And Bradford, United Kingdom

9:47 PM GMT on January 18, 2018 (GMT +0000)
Leeds Bradford

Weather History for EGNM - February, 2014

Change the Weather History Date:

Tuesday, February 18, 2014

  Actual Average Record
Temperature  
Mean Temperature 45 °F -  
Max Temperature 49 °F 44 °F 53 °F (2017)
Min Temperature 41 °F 34 °F 24 °F (2008)
Degree Days  
Heating Degree Days 20    
Moisture  
Dew Point 40 °F    
Average Humidity 87    
Maximum Humidity 100    
Minimum Humidity 67    
Precipitation  
Precipitation 0.00 in - - ()
Sea Level Pressure  
Sea Level Pressure 29.67 in    
Wind  
Wind Speed 8 mph ()    
Max Wind Speed 17 mph    
Max Gust Speed -    
Visibility 6.1 miles    
Events Rain    
Averages and records for this station are not official NWS values.
T = Trace of Precipitation, MM = Missing Value Source: Averaged Metar Reports

Daily Weather History Graph

Daily Weather History Graph

Search for Another Location

Airport or City:

Trip Planner

Search our weather history database for the weather conditions in past years. The results will help you decide how hot, cold, wet, or windy it might be!

Date:

Astronomy

Feb. 18, 2014 Rise Set
Actual Time 7:20 AM GMT 5:21 PM GMT
Civil Twilight 6:43 AM GMT 5:58 PM GMT
Nautical Twilight 6:02 AM GMT 6:39 PM GMT
Astronomical Twilight 5:22 AM GMT 7:20 PM GMT
Moon 9:40 PM GMT 8:09 AM GMT
Length of Visible Light 11h 14m
Length of Day
10h 01m
Waning Gibbous, 89% of the Moon is Illuminated
Feb 18
Waning Gibbous
Feb 22
Last Quarter
Mar 1
New
Mar 8
First Quarter
Mar 16
Full

Hourly Weather History & Observations

Time (GMT) Temp. Windchill Dew Point Humidity Pressure Visibility Wind Dir Wind Speed Gust Speed Precip Events Conditions
12:00 AM 43 °F - 42 °F 93%  in - South 12.7 mph - -  
12:50 AM 42.8 °F 40.1 °F 42.8 °F 100% 29.65 in 5.0 mi SSE 4.6 mph - N/A   Mostly Cloudy
1:00 AM 42 °F - 41 °F 95%  in - SSE 8.1 mph - -  
1:20 AM 41.0 °F 39.0 °F 41.0 °F 100% 29.65 in 5.0 mi Variable 3.5 mph - N/A   Scattered Clouds
1:50 AM 41.0 °F 38.0 °F 41.0 °F 100% 29.65 in 5.0 mi SSE 4.6 mph - N/A   Scattered Clouds
2:00 AM 42 °F - 40 °F 92%  in - SSE 6.9 mph - -  
2:20 AM 41.0 °F 38.0 °F 41.0 °F 100% 29.65 in 5.0 mi SSW 4.6 mph - N/A   Scattered Clouds
2:50 AM 41.0 °F 37.1 °F 41.0 °F 100% 29.65 in 6.2 mi South 5.8 mph - N/A   Scattered Clouds
3:00 AM 43 °F - 41 °F 88%  in - SSE 4.6 mph - -  
3:20 AM 42.8 °F 38.6 °F 41.0 °F 93% 29.65 in 6.2 mi South 6.9 mph - N/A   Scattered Clouds
3:50 AM 42.8 °F 39.3 °F 41.0 °F 93% 29.65 in 6.2 mi South 5.8 mph - N/A   Scattered Clouds
4:00 AM 44 °F - 40 °F 81%  in - SSW 8.1 mph - -  
4:20 AM 42.8 °F 39.3 °F 41.0 °F 93% 29.65 in 6.2 mi SSW 5.8 mph - N/A   Scattered Clouds
4:50 AM 42.8 °F 41.1 °F 41.0 °F 93% 29.65 in 6.2 mi Variable 3.5 mph - N/A   Scattered Clouds
5:00 AM 43 °F - 40 °F 86%  in - SSW 10.4 mph - -  
5:20 AM 41.0 °F 37.1 °F 41.0 °F 100% 29.65 in 6.2 mi SSW 5.8 mph - N/A   Scattered Clouds
5:50 AM 42.8 °F 39.3 °F 42.8 °F 100% 29.65 in 6.2 mi SSW 5.8 mph - N/A   Scattered Clouds
6:00 AM 43 °F - 40 °F 86%  in - SW 12.7 mph - -  
6:20 AM 42.8 °F 38.6 °F 41.0 °F 93% 29.65 in 6.2 mi SSW 6.9 mph - N/A   Scattered Clouds
6:50 AM 42.8 °F 40.1 °F 41.0 °F 93% 29.65 in 6.2 mi SW 4.6 mph - N/A   Mostly Cloudy
7:00 AM 42 °F - 40 °F 90%  in - SW 6.9 mph - -  
7:20 AM 42.8 °F 41.1 °F 41.0 °F 93% 29.68 in 6.2 mi Variable 3.5 mph - N/A   Mostly Cloudy
7:50 AM 41.0 °F 38.0 °F 41.0 °F 100% 29.68 in 6.2 mi SSW 4.6 mph - N/A   Partly Cloudy
8:00 AM 43 °F - 40 °F 85%  in - SW 9.2 mph - -  
8:20 AM 41.0 °F 38.0 °F 41.0 °F 100% 29.68 in 6.2 mi SSW 4.6 mph - N/A   Partly Cloudy
8:50 AM 42.8 °F 38.6 °F 41.0 °F 93% 29.68 in 6.2 mi SW 6.9 mph - N/A   Scattered Clouds
9:00 AM 43 °F - 41 °F 88%  in - SW 10.4 mph - -  
9:20 AM 42.8 °F 38.0 °F 41.0 °F 93% 29.68 in 6.2 mi SW 8.1 mph - N/A   Mostly Cloudy
9:50 AM 46.4 °F 42.4 °F 42.8 °F 87% 29.68 in 6.2 mi SW 8.1 mph - N/A   Scattered Clouds
10:00 AM 45 °F - 40 °F 78%  in - SW 12.7 mph - -  
10:20 AM 46.4 °F 41.9 °F 42.8 °F 87% 29.68 in 6.2 mi SW 9.2 mph - N/A   Scattered Clouds
10:50 AM 48.2 °F - 42.8 °F 82% 29.68 in 6.2 mi SW 8.1 mph - N/A   Scattered Clouds
11:00 AM 46 °F - 40 °F 72%  in - SW 11.5 mph - -  
11:20 AM 46.4 °F 41.9 °F 42.8 °F 87% 29.68 in 6.2 mi SSW 9.2 mph - N/A   Scattered Clouds
11:50 AM 46.4 °F 42.4 °F 42.8 °F 87% 29.68 in 6.2 mi SW 8.1 mph - N/A   Mostly Cloudy
12:00 PM 47 °F - 40 °F 67%  in - SW 12.7 mph - -  
12:20 PM 46.4 °F 42.9 °F 41.0 °F 81% 29.68 in 6.2 mi SW 6.9 mph - N/A   Mostly Cloudy
12:50 PM 46.4 °F 42.9 °F 41.0 °F 81% 29.68 in 6.2 mi WSW 6.9 mph - N/A   Mostly Cloudy
1:00 PM 46 °F - 40 °F 72%  in - WSW 11.5 mph - -  
1:20 PM 46.4 °F 42.4 °F 42.8 °F 87% 29.68 in 6.2 mi SW 8.1 mph - N/A Rain Light Rain Showers
1:50 PM 46.4 °F 42.4 °F 41.0 °F 81% 29.65 in 6.2 mi WSW 8.1 mph - N/A   Scattered Clouds
2:00 PM 46 °F - 40 °F 74%  in - WSW 10.4 mph - -  
2:20 PM 46.4 °F 41.9 °F 42.8 °F 87% 29.65 in 6.2 mi WSW 9.2 mph - N/A   Scattered Clouds
2:50 PM 46.4 °F 42.4 °F 41.0 °F 81% 29.65 in 6.2 mi WSW 8.1 mph - N/A   Scattered Clouds
3:00 PM 46 °F - 41 °F 78%  in - WSW 9.2 mph - -  
3:20 PM 46.4 °F 42.9 °F 41.0 °F 81% 29.65 in 6.2 mi WSW 6.9 mph - N/A   Scattered Clouds
3:50 PM 46.4 °F 40.4 °F 37.4 °F 71% 29.65 in 6.2 mi West 13.8 mph - N/A   Scattered Clouds
4:00 PM 44 °F - 39 °F 76%  in - West 15.0 mph - -  
4:20 PM 44.6 °F 37.8 °F 37.4 °F 76% 29.68 in 6.2 mi West 15.0 mph - N/A   Scattered Clouds
4:50 PM 44.6 °F 39.2 °F 37.4 °F 76% 29.68 in 6.2 mi West 10.4 mph - N/A   Scattered Clouds
5:00 PM 44 °F - 39 °F 76%  in - West 11.5 mph - -  
5:20 PM 44.6 °F 39.7 °F 39.2 °F 81% 29.68 in 6.2 mi West 9.2 mph - N/A   Scattered Clouds
5:50 PM 44.6 °F 39.7 °F 39.2 °F 81% 29.68 in 6.2 mi West 9.2 mph - N/A   Scattered Clouds
6:00 PM 43 °F - 39 °F 81%  in - West 8.1 mph - -  
6:20 PM 42.8 °F 37.0 °F 39.2 °F 87% 29.68 in 6.2 mi West 10.4 mph - N/A   Scattered Clouds
6:50 PM 42.8 °F 37.5 °F 39.2 °F 87% 29.68 in 6.2 mi WSW 9.2 mph - N/A   Scattered Clouds
7:00 PM 42 °F - 39 °F 85%  in - West 11.5 mph - -  
7:20 PM 42.8 °F 37.5 °F 37.4 °F 81% 29.68 in 6.2 mi WSW 9.2 mph - N/A   Scattered Clouds
7:50 PM 42.8 °F 36.6 °F 39.2 °F 87% 29.68 in 6.2 mi WSW 11.5 mph - N/A   Scattered Clouds
8:00 PM 42 °F - 39 °F 83%  in - WSW 10.4 mph - -  
8:20 PM 42.8 °F 36.2 °F 39.2 °F 87% 29.68 in - WSW 12.7 mph - N/A   Clear
8:50 PM 42.8 °F 35.8 °F 39.2 °F 87% 29.68 in - WSW 13.8 mph - N/A   Clear
9:00 PM 42 °F - 38 °F 82%  in - West 13.8 mph - -  
9:20 PM 42.8 °F 36.2 °F 39.2 °F 87% 29.68 in - West 12.7 mph - N/A   Clear
9:50 PM 42.8 °F 36.6 °F 39.2 °F 87% 29.68 in - WSW 11.5 mph - N/A   Clear
10:00 PM 42 °F - 38 °F 83%  in - West 12.7 mph - -  
10:20 PM 41.0 °F 34.3 °F 39.2 °F 93% 29.68 in 6.2 mi West 11.5 mph - N/A   Partly Cloudy
10:50 PM 41.0 °F 33.5 °F 39.2 °F 93% 29.68 in 6.2 mi WSW 13.8 mph - N/A   Partly Cloudy
11:00 PM 42 °F - 37 °F 78%  in - WSW 9.2 mph - -  
11:20 PM 42.8 °F 34.8 °F 39.2 °F 87% 29.68 in 6.2 mi West 17.3 mph - N/A   Partly Cloudy
11:50 PM 42.8 °F 35.8 °F 39.2 °F 87% 29.71 in 6.2 mi West 13.8 mph - N/A   Scattered Clouds